Regional Weather Roundup
Issued by NWS

Home | Current Version | Previous Version | Graphics & Text | Print | Product List | Glossary On
Versions: 1 2 3 4 5 6 7 8 9 10 11 12 13 14 15 16 17 18 19 20 21 22 23 24 25 26 27 28 29 30 31 32 33 34 35 36 37 38 39 40 41 42 43 44 45 46 47 48 49 50
000
ASUS43 KBIS 281020
RWRND

NORTH DAKOTA REGIONAL WEATHER ROUNDUP
NATIONAL WEATHER SERVICE BISMARCK ND
500 AM CDT TUE APR 28 2015

NOTE: "FAIR" INDICATES FEW OR NO CLOUDS BELOW 12,000 FEET WITH NO
SIGNIFICANT WEATHER AND/OR OBSTRUCTIONS TO VISIBILITY.


NDZ001>003-009>011-017-281100-
NORTHWEST NORTH DAKOTA

CITY           SKY/WX    TMP DP  RH WIND       PRES   REMARKS
WILLISTON      CLEAR     37  34  89 S3        30.30R
MINOT          CLEAR     37  34  89 SW8       30.27S
MINOT AFB      CLEAR     35  35 100 W10       30.26S
$$

NDZ018>021-031>035-040>046-281100-
SOUTHWEST NORTH DAKOTA

CITY           SKY/WX    TMP DP  RH WIND       PRES   REMARKS
BISMARCK       CLEAR     33  32  96 SW3       30.32S FOG
DICKINSON      CLEAR     31  29  92 W7        30.30R
GARRISON         N/A     32  29  88 CALM      30.29R
HETTINGER ARPT CLEAR     27  25  92 NW7       30.33R WCI  19
$$

NDZ004>008-012>016-024-026-027-054-281100-
NORTHEAST NORTH DAKOTA

CITY           SKY/WX    TMP DP  RH WIND       PRES   REMARKS
GRAND FORKS    FOG       43  43 100 N7        30.28R VSB 1/2
GRND FRKS AFB  FOG       43  41  93 N3        30.28S VSB 1/2
DEVILS LAKE      N/A     32  28  86 CALM      30.27S VSB 1/4
$$

NDZ022-023-025-028>030-036>039-047>053-281100-
SOUTHEAST NORTH DAKOTA

CITY           SKY/WX    TMP DP  RH WIND       PRES   REMARKS
FARGO          MOCLDY    45  43  93 N9        30.26R
JAMESTOWN      CLEAR     35  33  92 NW6       30.27S
$$



USA.gov is the U.S. government's official web portal to all federal, state and local government web resources and services.